Theta_e
295 283 280 279 281 284 286 287 287 288 288 287 287 286 283 284 286 288 288 289 290 286 284 286 286 286 287 288 289 290 291 290 289 288 287 287 285 287 286 285 286 287 287 289 289 290 291 290 290 291 291 290 291 292 293 293 293 293 294 296 294 295 296 296 295 295 294 294 294 294 293 293 296 294 294 293 293 293 294 295 295 295 296 297 298 299
291 281 280 284 285 285 286 287 287 286 287 285 284 284 283 285 282 287 287 289 291 285 283 286 286 286 287 289 290 290 290 288 288 287 287 287 287 287 286 285 284 285 290 290 289 288 289 289 290 290 290 291 288 290 291 292 292 293 294 293 294 295 295 295 296 295 294 294 293 293 293 292 291 292 294 293 293 292 293 293 294 294 295 296 296 297
282 279 283 285 288 288 287 288 286 284 282 284 283 282 281 282 285 288 288 290 289 287 283 286 285 285 287 289 289 289 289 289 289 287 286 286 286 286 285 285 284 284 285 286 286 288 287 289 289 288 288 288 289 289 290 291 292 293 293 293 294 294 294 295 296 295 295 295 294 293 292 292 291 292 292 292 294 294 292 292 293 293 294 294 295 296
278 282 285 287 287 285 285 286 283 281 284 282 283 279 277 283 281 277 285 287 288 286 283 285 283 284 287 288 289 290 289 290 290 291 289 289 286 285 284 285 284 284 284 284 285 286 286 287 287 287 287 288 289 289 289 290 291 292 293 293 293 294 294 294 296 297 295 296 295 294 293 292 292 291 292 291 292 291 291 291 292 292 292 293 293 294
279 285 288 287 286 286 281 283 280 281 281 284 285 280 279 280 281 281 282 286 288 288 287 284 281 281 285 284 286 288 290 290 289 287 287 287 289 286 288 287 286 284 285 284 285 285 286 286 286 286 287 288 288 288 289 290 290 291 290 292 293 293 294 294 296 295 295 295 294 294 293 293 291 291 291 290 289 290 290 290 291 291 292 292 292 293
282 288 289 285 286 286 284 280 276 276 278 279 280 281 280 281 282 283 285 284 279 280 284 282 275 275 281 284 284 286 287 287 287 282 282 285 286 285 284 283 285 288 286 286 286 286 288 287 287 287 287 287 287 288 289 290 290 289 289 290 291 292 293 293 294 295 294 293 292 291 290 288 288 287 288 287 288 288 288 289 290 291 292 292 292 292
283 289 287 282 284 284 285 281 281 280 277 277 278 283 285 284 283 283 283 281 275 274 278 280 273 271 278 281 283 285 285 286 286 285 283 286 285 285 285 285 285 284 285 286 288 287 287 287 286 286 286 286 286 288 289 290 290 289 289 289 290 290 291 293 293 293 295 292 292 291 290 289 288 287 288 289 290 290 290 290 290 290 291 292 291 291
285 286 284 282 282 281 279 278 281 281 277 276 284 286 285 283 282 282 281 278 277 281 279 279 278 272 272 280 285 285 284 284 286 287 287 287 287 285 286 285 284 284 284 286 286 286 286 286 285 285 286 286 287 288 289 289 290 289 288 288 289 290 291 291 292 292 294 292 291 290 290 290 288 288 288 288 289 290 291 290 290 290 290 291 291 291
283 284 282 281 280 278 276 280 283 283 278 278 287 286 282 282 282 283 279 279 280 276 275 276 276 272 273 279 285 284 280 282 282 285 287 288 288 286 287 285 284 285 284 284 285 284 286 286 286 286 285 286 287 287 287 288 288 289 288 288 288 288 289 290 291 292 291 294 292 291 289 288 289 289 289 289 289 288 289 288 288 288 289 290 290 291
283 285 283 285 282 277 281 282 283 284 277 283 285 285 284 284 284 282 278 279 279 275 272 272 274 271 272 278 281 283 281 281 283 285 286 288 288 287 287 285 284 285 284 285 284 285 285 286 286 287 286 286 286 287 289 288 288 288 287 287 287 287 288 289 289 290 290 290 292 290 289 288 288 288 287 287 287 286 286 286 286 287 287 287 288 288
286 288 290 285 280 284 282 283 284 283 283 286 284 282 283 282 278 278 278 278 275 272 274 274 277 273 269 275 278 277 277 281 284 285 287 288 288 288 288 286 285 284 285 284 284 285 285 285 286 288 286 286 287 287 287 288 287 288 287 286 286 286 287 288 288 289 289 289 289 289 289 288 288 288 287 286 286 286 286 285 285 285 286 286 287 287
286 286 286 287 288 287 286 283 286 284 285 282 278 279 280 279 278 277 278 277 270 271 275 278 277 278 268 274 281 284 285 286 285 285 285 286 287 288 287 286 285 285 284 285 285 285 285 285 285 286 286 286 287 287 286 286 287 287 287 286 285 285 286 287 288 288 289 289 289 288 288 288 288 288 288 286 285 286 285 285 285 285 285 285 286 286
283 283 283 286 287 285 283 281 284 283 284 282 280 279 275 274 276 271 275 271 273 272 275 277 279 274 273 277 281 283 284 286 287 287 286 287 287 287 287 286 286 286 285 285 285 286 286 285 285 285 285 286 286 286 286 286 287 286 286 285 284 285 285 286 286 286 287 287 287 288 288 288 290 288 287 287 286 286 285 285 284 284 284 284 284 285
281 280 285 284 285 287 286 278 278 277 279 279 277 275 274 271 269 266 270 274 275 277 277 275 279 274 278 281 284 283 285 286 286 286 286 287 287 287 287 287 287 286 285 286 286 286 285 285 286 286 285 286 286 285 285 285 285 286 286 285 284 284 285 286 286 286 286 286 287 287 288 287 287 287 287 287 286 286 286 286 284 284 284 284 284 285
275 277 281 283 280 284 284 281 280 278 278 278 281 276 275 273 269 265 269 267 270 274 278 278 273 272 275 279 285 284 286 286 285 286 286 286 287 287 287 287 287 286 286 286 285 286 286 286 286 286 286 285 286 285 286 285 285 286 286 285 285 284 284 285 285 285 285 286 286 287 287 287 287 286 286 287 288 287 286 286 285 285 284 284 285 285
280 279 283 284 284 285 284 285 285 280 279 279 280 281 276 273 275 270 272 271 271 270 270 273 272 277 279 285 284 285 285 286 286 286 286 286 286 287 287 287 287 287 287 287 286 286 286 286 286 286 286 286 286 285 286 285 285 285 285 285 286 285 285 285 287 285 285 285 286 286 286 287 289 289 287 287 288 287 287 286 286 285 285 285 285 285
278 278 282 285 284 281 282 285 285 283 274 278 278 274 275 279 276 272 273 273 271 271 269 276 278 280 284 282 283 283 284 285 285 284 284 284 285 286 286 287 287 287 286 286 287 286 287 286 287 287 285 285 286 285 286 286 285 286 286 284 284 284 284 285 285 285 284 285 285 285 286 286 286 286 285 285 286 286 286 286 285 285 285 285 285 287
274 277 283 283 281 282 284 283 284 284 282 279 275 277 281 280 278 273 268 270 270 267 271 277 275 276 277 275 281 282 281 283 284 284 283 284 285 284 285 286 287 287 287 287 288 288 288 287 287 287 287 286 286 286 285 286 286 285 286 284 284 284 284 284 284 285 285 284 285 285 285 285 286 286 286 286 285 286 285 285 285 285 286 285 286 287
280 275 280 280 282 283 285 284 282 284 285 281 278 279 277 273 272 274 273 267 267 266 269 274 277 277 278 276 277 280 280 281 283 284 284 284 284 285 286 286 287 287 287 287 287 287 288 287 287 287 287 287 287 287 286 287 287 286 285 285 284 284 284 284 285 285 285 285 286 286 285 284 285 285 285 286 286 285 285 285 285 285 285 285 286 286
282 273 278 281 282 283 281 279 277 278 281 277 282 280 279 278 275 272 272 272 273 268 269 269 275 274 280 277 281 281 282 283 283 284 284 285 286 286 287 288 288 288 288 288 288 288 288 288 288 288 288 287 287 287 287 286 286 286 286 285 285 285 285 285 284 285 284 284 285 286 286 285 284 285 285 285 284 284 284 285 285 285 285 285 285 284
277 279 272 280 281 281 279 279 277 278 277 277 277 276 276 276 278 277 275 272 270 268 268 269 269 276 282 284 281 281 283 285 286 286 286 286 286 286 287 288 289 289 290 289 289 288 289 288 288 288 288 288 288 287 287 287 286 286 286 285 285 285 284 284 284 284 285 285 285 285 284 284 284 284 285 285 284 284 284 284 285 284 284 285 285 284
276 277 274 278 278 278 279 279 280 280 280 279 278 277 278 276 275 273 273 274 272 271 267 268 269 276 282 283 282 281 282 284 286 286 287 286 286 286 287 289 289 289 289 288 289 290 290 289 288 289 289 288 288 288 287 287 286 286 286 286 285 285 285 284 285 285 285 284 285 284 285 284 284 284 284 284 284 284 284 284 284 284 284 283 284 284
279 276 275 273 276 280 279 280 281 280 277 276 278 278 278 278 278 276 271 274 274 273 272 271 270 274 282 283 283 282 283 284 286 287 286 286 286 287 287 287 287 289 289 289 288 288 288 289 290 290 288 289 289 288 287 287 287 287 286 286 286 286 285 286 285 286 285 285 285 285 285 285 284 285 284 283 283 283 284 284 283 284 283 283 284 284
283 275 274 277 281 279 278 279 280 278 279 277 276 277 278 276 278 277 277 277 272 273 271 271 267 272 282 283 284 284 284 283 283 284 286 286 287 287 287 287 286 287 287 288 288 288 288 288 288 288 289 289 288 288 288 288 287 287 287 287 286 286 286 286 286 286 286 285 285 285 285 285 285 284 284 284 284 283 283 284 284 284 284 284 284 284
274 277 276 273 275 276 275 275 275 273 275 278 278 278 278 279 277 277 277 278 272 273 274 272 267 272 281 282 284 283 283 283 284 285 286 285 286 287 287 287 287 287 288 287 287 287 287 287 287 288 288 289 289 288 289 288 288 287 287 287 287 287 287 286 286 286 286 285 285 284 284 284 284 284 284 284 284 284 284 284 284 284 284 284 284 284
277 275 274 271 270 269 270 272 273 274 277 279 279 280 279 278 278 275 272 274 269 272 275 270 271 278 282 283 284 285 286 284 284 286 287 287 286 287 287 287 287 287 287 287 287 287 287 286 286 286 287 288 288 289 289 289 289 288 288 287 287 287 287 287 286 286 286 285 284 284 284 284 284 284 284 284 284 284 284 284 284 284 284 284 284 284
275 276 275 275 273 274 277 279 282 282 279 275 278 279 279 279 279 278 276 273 271 274 273 275 276 277 279 282 283 283 284 284 285 285 285 285 285 285 285 286 287 287 287 287 287 287 287 286 286 287 287 287 287 287 288 288 289 288 288 287 287 287 287 287 286 286 285 285 284 284 284 284 284 285 284 285 285 285 284 284 284 284 284 284 284 284
275 273 275 275 277 278 280 279 280 280 276 277 277 277 278 279 279 276 273 272 277 274 271 278 279 277 279 281 282 283 284 284 285 285 284 283 284 285 285 285 288 286 286 286 286 287 287 287 287 286 286 286 287 287 287 288 289 289 288 288 287 287 286 288 286 285 285 285 284 285 285 285 285 284 285 285 285 285 285 285 284 284 284 284 284 284
274 271 277 276 276 278 278 279 279 278 278 278 278 277 277 278 278 276 276 277 277 273 272 277 279 277 279 281 283 283 284 284 285 285 285 285 285 285 284 284 284 284 285 286 287 287 287 287 287 287 287 287 286 286 286 286 287 286 286 287 287 286 286 286 285 285 284 284 284 285 285 285 284 285 285 284 285 285 285 285 284 284 284 284 284 285
274 272 274 275 275 276 277 277 278 277 277 278 278 278 278 278 277 278 278 278 278 276 278 278 278 278 280 281 283 284 285 285 286 285 283 283 283 285 286 285 285 285 285 286 287 287 288 288 288 288 287 286 286 286 285 286 286 286 287 287 287 286 286 284 284 284 284 284 284 285 284 284 284 285 284 285 285 285 284 284 284 284 284 284 284 284
274 273 278 274 272 274 277 278 278 277 277 276 278 278 278 278 277 277 277 278 278 277 278 278 277 277 282 284 284 285 286 286 284 283 283 283 283 284 285 286 285 284 285 286 287 287 288 288 288 288 287 287 286 286 287 287 287 286 285 286 286 286 285 284 284 284 284 285 285 285 283 283 284 283 283 284 285 284 284 284 284 284 284 284 283 283
274 272 276 272 271 272 276 275 276 277 277 275 275 276 276 276 274 276 276 278 276 275 276 276 275 276 281 284 284 284 284 283 283 283 283 283 284 284 284 285 284 284 285 285 286 287 287 287 287 287 287 287 287 287 286 287 287 285 285 286 285 285 285 284 284 284 284 284 284 284 284 284 283 283 283 284 284 284 283 284 283 283 283 283 282 283
272 272 272 272 270 270 274 276 275 275 273 272 274 277 278 278 278 278 278 279 279 279 276 274 275 281 283 284 282 283 283 283 283 283 283 283 284 284 284 284 284 284 285 285 286 287 287 287 287 288 288 287 288 288 288 288 286 286 287 284 285 284 284 284 284 284 284 284 283 283 283 283 283 283 283 283 284 284 283 283 283 283 283 283 283 283
274 273 272 274 268 270 272 273 274 271 268 274 280 281 281 281 280 278 279 279 280 280 278 280 281 283 283 283 282 283 283 284 284 285 286 285 284 284 284 284 285 285 285 285 286 287 288 288 288 288 288 288 288 287 288 287 286 287 286 286 284 283 283 283 283 283 284 283 283 283 283 283 283 283 283 284 283 283 283 283 283 284 284 284 283 283
274 273 271 273 269 269 270 272 270 266 271 280 282 283 284 283 281 280 280 281 281 281 281 281 281 282 284 284 284 285 285 286 285 285 284 285 284 284 284 284 285 285 285 285 286 287 288 288 288 288 287 286 286 286 286 286 285 285 284 284 284 283 283 283 283 283 283 283 283 283 283 283 283 283 283 283 283 283 283 283 283 283 284 284 284 284
273 272 273 272 271 272 269 270 267 271 278 282 283 282 282 280 279 279 278 280 281 281 282 281 282 283 284 284 285 286 285 285 283 283 284 286 286 285 284 284 285 286 285 286 286 287 288 287 287 287 287 287 286 285 285 286 285 284 285 283 284 283 283 283 283 283 283 283 283 283 283 283 282 283 283 283 283 283 283 284 284 284 284 283 283 283
276 274 273 270 273 267 270 270 271 278 277 279 279 279 279 277 277 276 272 277 282 283 282 281 283 284 284 285 285 285 284 282 280 282 286 287 287 286 286 286 287 287 287 287 287 288 288 288 287 287 286 286 285 285 285 285 285 285 284 283 284 283 283 283 283 283 283 283 283 283 283 282 283 283 283 283 282 282 283 283 283 284 284 283 282 282
276 271 273 270 271 273 269 269 272 271 268 275 279 281 281 282 281 281 277 277 284 284 284 284 283 284 284 284 284 283 283 280 279 280 284 285 286 287 287 287 288 288 287 287 287 286 286 286 285 285 285 285 285 284 285 284 284 284 284 284 283 282 283 283 283 283 283 283 283 283 283 283 283 283 283 282 282 283 283 283 283 283 283 282 282 282
272 274 272 271 271 271 271 270 270 267 272 279 279 279 281 281 282 282 276 275 282 284 285 284 283 284 284 283 283 283 281 278 279 281 285 286 286 287 286 286 287 288 287 287 287 286 286 286 286 286 285 284 284 285 284 284 283 283 283 283 283 282 283 283 284 284 283 284 284 283 283 283 283 283 282 282 282 283 282 282 282 282 282 282 282 282
269 271 271 269 267 269 269 269 269 271 273 279 279 279 279 281 283 279 271 272 281 281 285 284 284 283 283 284 283 281 279 278 280 282 285 287 286 286 285 287 286 286 286 286 285 286 286 286 285 284 284 284 285 285 284 283 283 283 283 283 282 282 283 284 284 284 284 284 284 283 283 283 283 283 283 282 282 282 282 282 281 281 281 280 281 280
268 269 271 269 269 271 273 271 273 274 280 283 282 279 279 282 279 270 270 277 282 284 284 284 284 284 284 283 282 282 282 285 286 287 286 285 285 286 286 285 286 286 286 286 287 287 285 285 285 285 285 286 286 285 284 283 283 283 283 283 282 282 284 284 284 284 284 284 283 283 283 283 283 283 282 282 282 282 281 281 281 280 280 280 280 279
269 270 271 270 269 269 271 270 271 275 281 284 283 282 281 279 270 272 281 284 283 282 283 284 285 285 284 284 284 285 286 287 287 287 286 285 286 287 286 286 286 286 285 285 286 285 285 285 285 284 284 285 285 285 285 284 283 284 283 282 282 283 284 283 283 283 283 283 283 283 282 282 282 282 283 281 280 280 280 279 279 279 278 277 277 277
274 270 269 268 270 270 270 269 269 268 277 282 282 280 281 276 278 283 283 283 284 284 284 284 284 285 284 284 284 286 286 286 285 286 286 286 286 286 286 286 286 286 286 286 286 285 285 285 285 285 285 285 284 285 284 283 283 283 283 282 283 284 283 283 283 283 283 282 282 281 281 280 280 281 282 281 280 279 279 278 276 277 277 277 276 276
279 273 273 273 275 270 269 269 271 278 280 283 283 277 279 283 286 285 285 285 285 285 285 285 284 285 285 285 285 285 285 285 285 285 285 285 285 285 285 285 285 285 285 285 285 285 284 285 285 285 285 285 284 284 284 283 283 283 283 283 284 283 283 283 283 282 282 281 280 280 279 279 279 280 279 279 278 278 277 276 276 275 275 275 275 274
281 279 280 277 278 277 275 276 281 281 281 285 285 287 286 287 287 286 285 286 286 287 286 286 286 286 286 285 285 285 285 285 285 286 285 286 286 286 286 286 286 286 286 286 286 286 284 285 285 285 285 285 284 283 284 283 283 283 283 284 283 283 283 282 281 281 281 281 280 279 279 278 278 278 277 277 277 277 276 274 274 274 274 273 273 273
283 285 284 281 282 283 285 287 288 288 287 286 287 287 287 288 289 288 287 286 287 288 288 288 287 287 286 285 285 286 285 286 286 286 286 286 286 286 286 286 286 286 286 285 285 285 285 285 284 284 284 285 283 283 283 283 283 283 284 285 283 283 282 282 281 281 281 280 279 279 277 277 276 276 276 276 276 276 275 276 274 274 272 273 272 272
283 283 283 281 279 278 278 283 285 286 288 288 289 289 289 288 289 289 288 288 289 289 289 288 288 288 287 286 286 286 286 286 286 286 286 286 286 286 286 286 286 286 286 285 286 285 285 284 285 284 284 285 284 283 284 283 284 284 284 284 283 282 282 281 281 281 280 279 279 277 276 276 275 275 274 274 275 274 273 274 274 274 271 271 271 269
280 287 283 283 282 280 281 285 285 287 288 288 288 288 288 289 290 290 290 290 289 288 288 288 287 286 285 285 286 286 287 287 286 286 287 287 287 287 286 286 286 286 286 286 285 285 284 284 284 285 285 285 285 284 284 284 284 284 284 284 284 283 282 281 280 280 279 279 278 278 277 277 276 276 274 273 274 273 272 272 273 272 271 271 270 269
284 285 280 281 281 283 285 286 286 287 287 287 288 288 289 289 289 289 289 289 288 288 288 288 287 287 287 287 286 286 286 287 287 286 286 287 287 286 287 287 287 286 286 286 286 285 285 285 285 285 285 285 286 285 284 284 284 284 284 284 283 281 281 281 279 279 278 278 276 277 277 277 276 275 274 273 271 271 271 271 272 272 271 270 269 269
284 281 285 283 281 280 281 284 286 281 282 284 285 287 288 289 288 288 288 287 287 287 287 287 287 287 287 287 287 287 287 288 288 286 286 287 287 287 286 286 287 286 286 286 286 285 285 285 285 285 285 286 285 285 285 284 284 283 283 282 281 280 280 280 279 276 278 277 277 277 275 276 273 273 273 273 272 269 267 272 275 274 270 268 274 275
284 285 284 282 281 281 286 287 288 288 287 288 290 290 290 289 287 286 286 286 287 287 287 287 287 288 288 288 287 287 287 287 288 287 287 287 288 288 287 287 286 287 287 286 285 285 285 285 285 285 284 285 285 284 284 284 284 282 282 281 281 280 280 278 278 277 277 276 276 276 275 273 272 273 273 272 271 269 268 267 268 275 276 274 274 274
Wind_Speed
4 14 10 2 5 7 7 7 7 7 5 7 5 5 6 7 4 7 6 4 5 6 2 6 8 8 8 8 5 2 1 0 1 0 2 1 2 3 1 3 2 2 3 8 6 4 4 6 7 7 7 8 8 9 10 9 9 9 8 8 11 10 9 8 8 9 9 9 8 8 9 8 7 9 9 8 9 9 9 9 10 10 9 9 9 10
4 14 6 3 3 5 6 4 4 6 5 6 7 4 7 4 6 10 4 6 5 6 5 6 9 10 9 8 4 2 0 2 1 2 2 3 3 3 3 2 3 3 0 1 2 4 4 4 6 7 8 8 10 9 10 9 8 7 7 9 9 8 8 9 8 7 8 7 7 7 7 7 7 8 9 9 9 8 8 10 10 9 9 10 10 10
10 7 2 3 2 3 5 3 4 5 6 5 5 3 4 5 8 3 3 2 5 8 7 7 10 13 12 9 1 1 1 1 2 2 2 0 2 1 2 2 3 3 3 4 3 3 3 4 5 7 6 6 6 6 7 8 8 8 8 7 7 7 7 7 7 7 6 6 8 8 7 6 6 8 8 8 8 8 10 11 11 10 10 10 10 10
6 3 4 3 2 3 3 2 9 5 4 3 2 3 5 4 7 6 4 10 12 5 7 7 11 13 10 4 2 1 1 1 4 2 1 1 3 1 1 3 1 1 3 4 5 6 5 4 5 5 7 7 5 6 7 8 8 6 7 7 6 7 7 6 6 7 7 7 6 7 7 7 7 6 6 8 9 10 11 12 11 10 10 10 10 9
3 1 2 2 4 3 4 2 9 8 2 2 2 1 3 5 3 3 8 10 13 3 6 7 9 3 0 2 2 3 4 3 3 2 1 3 2 3 3 1 3 1 1 2 5 4 4 6 5 6 7 6 6 6 7 7 7 5 7 7 7 7 7 7 7 7 7 6 6 5 5 5 6 7 7 7 9 9 9 9 10 10 10 10 10 10
2 0 1 3 2 3 2 1 4 2 5 2 2 1 0 1 6 6 8 10 4 0 2 7 7 2 2 2 1 3 2 3 4 3 3 4 3 4 3 3 4 2 1 0 1 4 4 5 5 6 6 6 6 6 5 4 5 5 6 6 6 5 6 7 8 6 5 5 6 5 5 6 7 8 8 9 8 8 9 9 8 9 10 10 10 9
1 1 1 2 3 4 3 1 0 1 5 3 1 2 0 2 4 6 7 5 3 3 3 3 3 8 3 4 2 1 3 2 5 3 5 4 3 4 4 5 5 3 2 1 0 1 4 4 5 5 5 6 7 6 5 5 5 6 5 5 5 5 5 6 6 7 4 5 6 7 8 7 8 8 7 6 6 6 6 6 9 8 9 9 10 10
3 3 5 3 3 2 4 2 2 3 3 3 1 2 1 3 5 5 4 1 3 3 2 3 1 2 7 2 1 1 1 3 3 6 5 5 4 5 3 4 3 3 3 0 0 1 1 3 3 4 4 5 6 6 6 6 6 7 6 6 5 5 6 6 6 7 7 5 5 6 6 7 7 7 7 6 6 6 6 7 8 7 8 9 9 9
2 2 3 5 3 3 3 0 3 2 0 5 3 4 5 4 4 3 2 4 4 2 2 1 1 1 3 1 0 3 2 3 5 4 5 6 5 4 2 3 3 3 3 1 1 1 2 3 3 2 2 3 4 5 5 6 6 6 6 6 5 6 6 6 7 7 8 7 7 6 5 6 6 5 5 5 6 6 6 7 7 7 7 8 9 9
1 1 0 3 1 3 3 3 2 2 2 3 7 9 7 3 2 2 0 4 5 0 2 0 1 2 7 1 2 0 2 4 2 4 4 5 5 5 4 3 4 3 3 2 1 2 1 0 1 1 0 2 2 2 4 5 5 6 5 6 6 6 6 6 6 7 8 8 7 7 7 7 6 6 6 5 6 6 6 7 7 7 7 7 7 8
1 2 1 2 1 1 3 5 3 3 7 7 9 8 4 4 3 0 2 2 1 1 1 2 2 2 3 3 3 2 2 1 2 2 3 4 4 4 4 4 3 4 4 3 3 3 4 2 0 0 1 2 2 2 3 4 4 5 5 5 6 6 6 6 6 6 6 6 6 6 6 6 6 6 5 6 6 6 6 7 6 6 6 6 7 6
2 0 0 0 0 3 3 5 2 4 2 3 3 4 6 3 3 1 1 0 1 1 1 2 1 1 0 3 5 3 3 1 1 0 4 4 4 4 4 4 4 4 4 4 3 4 4 4 3 2 1 1 1 2 2 2 4 4 4 5 5 6 6 6 6 7 7 6 6 5 5 6 5 5 5 5 5 5 5 5 6 6 6 6 6 6
1 1 0 2 2 3 3 3 0 1 2 2 5 6 5 4 0 3 1 3 0 3 1 2 2 2 5 7 3 4 3 1 1 3 3 4 4 4 4 4 4 4 4 4 4 3 3 3 3 3 3 2 2 1 2 1 1 3 4 4 4 5 5 6 5 5 6 6 6 5 5 5 4 5 5 5 5 4 5 5 5 6 6 5 6 6
1 2 2 1 1 1 2 5 6 2 5 8 6 5 6 6 5 4 3 2 3 1 3 3 1 2 5 2 0 3 4 4 4 4 4 3 4 4 4 4 4 4 4 4 4 4 3 4 3 3 3 3 3 3 2 1 1 1 2 3 3 4 4 4 5 5 5 5 5 5 4 4 5 5 5 5 5 5 5 5 5 5 5 5 4 4
5 3 0 1 2 2 2 2 0 3 4 4 3 2 1 2 0 2 3 4 5 9 10 6 0 2 5 2 3 4 4 4 5 5 5 5 4 3 4 4 4 4 3 4 4 4 4 4 4 3 3 3 3 4 3 2 1 1 0 1 2 2 4 4 4 4 5 5 5 4 4 5 4 5 5 5 5 4 4 4 5 4 4 5 4 4
1 6 1 1 1 2 3 0 1 2 2 3 3 1 1 0 0 3 2 4 5 6 6 1 2 2 3 1 1 1 2 1 4 4 3 2 2 2 1 2 3 3 4 4 4 4 4 5 4 4 4 4 4 4 4 3 3 2 1 0 0 1 1 2 2 3 3 4 4 4 4 4 4 4 4 5 4 4 4 4 4 4 4 4 3 3
4 2 1 1 4 3 1 1 2 1 3 3 3 2 1 1 2 3 3 2 1 0 6 4 3 4 0 1 2 2 1 2 2 3 2 2 1 2 1 1 2 3 4 4 5 4 5 5 5 5 5 4 4 4 4 4 4 4 3 2 2 1 1 0 1 1 2 2 3 4 4 4 4 4 4 3 3 3 3 4 4 4 4 4 3 2
1 11 5 3 1 1 1 1 1 3 0 2 1 1 1 2 2 1 3 2 2 3 2 3 6 7 6 3 4 1 3 2 3 2 3 3 3 3 4 4 4 4 4 4 4 5 5 5 5 5 5 5 5 5 5 5 5 5 4 4 4 4 3 2 2 0 0 1 0 1 1 2 2 3 3 3 1 2 2 2 2 2 4 3 2 1
0 5 1 1 0 1 1 1 0 1 0 1 1 1 2 2 2 1 1 6 7 5 6 2 6 6 5 2 5 6 3 4 3 2 1 2 3 4 4 5 5 5 4 4 5 4 5 5 5 6 6 6 6 6 6 6 6 5 5 4 5 5 5 4 4 3 2 2 1 0 0 1 0 1 1 1 1 1 1 1 3 3 3 2 1 2
1 1 3 1 1 2 1 1 1 1 1 2 3 2 1 1 1 4 1 3 0 7 8 4 7 5 1 2 7 8 6 7 3 1 1 1 0 1 1 2 3 4 5 4 4 4 5 5 6 6 6 7 7 6 6 6 5 6 6 5 5 4 4 4 4 4 3 3 3 3 1 2 2 2 2 2 2 1 2 1 2 1 0 1 1 2
2 1 3 1 2 1 1 0 0 2 1 0 1 1 0 1 3 3 1 1 1 3 1 4 9 5 3 6 4 3 5 6 5 5 4 3 3 3 1 2 4 4 2 2 4 4 5 5 5 6 5 6 6 6 6 6 7 7 6 6 6 6 5 5 5 5 5 4 4 4 4 4 4 3 3 3 4 3 3 3 3 3 3 2 1 3
0 1 5 9 9 2 2 0 0 1 0 0 0 0 1 2 3 4 4 2 2 1 3 3 10 11 8 1 2 2 3 3 3 4 2 2 2 4 3 0 0 2 3 3 3 3 3 4 5 5 5 5 5 6 7 7 7 6 7 7 7 7 7 7 7 6 6 5 5 5 5 5 4 4 3 4 4 4 4 4 4 4 3 3 4 3
1 2 2 7 4 11 0 2 0 0 2 1 0 0 2 1 1 1 4 1 1 2 0 3 3 8 2 1 2 2 1 1 0 0 3 3 2 2 2 4 3 1 2 2 2 3 4 3 3 3 4 7 8 8 8 7 8 9 8 8 7 8 8 8 8 7 7 6 6 7 6 6 5 5 5 5 4 4 4 4 4 4 4 4 4 4
1 0 3 5 7 1 3 2 1 3 1 1 0 1 0 1 2 3 2 0 2 1 1 2 4 9 5 1 2 0 0 2 2 2 4 4 3 3 2 2 3 4 4 3 2 3 3 4 3 3 4 4 5 6 7 7 7 7 8 9 8 10 10 8 7 8 8 7 8 7 7 7 7 7 7 6 6 6 5 5 5 4 5 5 4 4
2 1 1 7 5 2 1 2 1 1 1 1 1 3 4 1 1 0 1 0 3 6 8 3 7 3 0 3 2 3 2 4 4 3 2 4 4 3 2 1 1 2 3 3 3 3 3 3 4 5 5 5 5 4 5 6 6 7 8 7 9 10 9 8 7 8 8 8 8 8 8 8 8 8 8 8 7 7 7 6 6 6 6 6 5 5
1 3 2 3 8 11 10 6 6 4 3 3 2 1 3 4 3 1 1 1 4 3 7 4 8 7 3 1 5 9 11 6 5 6 6 4 4 6 4 2 2 3 3 4 4 2 3 3 4 4 5 5 5 5 5 5 6 6 7 9 8 8 8 9 8 8 8 8 9 9 9 9 8 9 9 9 8 8 8 8 7 7 6 7 7 6
0 1 2 3 4 7 9 10 4 6 9 9 10 8 7 5 5 4 3 5 10 4 6 11 12 16 17 15 10 9 7 13 12 7 6 4 4 4 4 2 2 3 4 5 4 4 3 4 4 5 5 6 5 5 5 5 6 6 6 7 7 7 7 7 7 8 8 9 9 9 9 9 10 10 9 9 9 8 8 8 8 8 8 7 7 7
0 2 6 7 10 11 11 14 11 7 12 14 13 12 5 5 5 7 7 11 0 4 13 9 10 11 14 7 9 14 14 11 11 8 6 4 4 5 4 3 4 3 4 4 4 4 4 3 4 4 5 5 5 5 5 5 6 6 6 7 6 6 7 6 7 7 8 8 9 9 10 10 10 9 10 8 8 9 9 9 8 8 7 6 8 8
0 2 2 5 7 10 10 13 12 12 12 13 14 12 12 8 8 10 13 14 7 8 15 11 9 13 19 16 15 14 13 12 11 11 5 3 5 6 5 3 2 4 5 5 5 5 4 3 3 4 4 4 5 5 6 6 6 5 5 5 5 5 7 7 7 8 8 8 9 11 10 8 7 8 8 8 8 9 9 9 8 8 7 7 8 8
1 5 3 1 8 8 10 14 13 13 14 16 15 12 11 10 11 12 15 12 12 15 15 16 16 19 19 18 16 16 14 12 11 6 4 3 5 5 4 2 3 4 4 4 5 5 5 4 4 4 4 4 4 5 5 5 6 6 6 7 6 6 5 4 6 7 7 8 10 9 7 7 7 8 7 8 10 10 9 8 9 9 9 10 9 8
2 3 4 1 4 9 10 10 10 7 8 16 21 14 12 11 11 12 10 11 11 13 16 18 18 19 18 15 11 12 12 9 6 5 5 4 4 5 4 4 4 5 5 4 4 3 2 3 4 5 4 5 5 5 5 5 6 5 6 6 6 7 6 5 6 6 7 10 9 8 6 6 8 7 8 10 9 8 9 9 9 9 9 9 8 8
1 4 3 1 7 7 2 2 6 8 10 15 20 22 17 7 7 8 7 8 6 12 11 9 10 13 14 7 7 7 5 5 6 5 4 3 4 4 5 5 5 5 5 5 5 4 3 4 4 4 5 5 4 4 4 5 5 5 6 6 6 7 5 6 6 7 8 9 7 6 6 7 6 7 9 9 10 10 8 7 8 8 8 8 8 9
3 1 3 4 6 6 0 1 10 12 11 10 8 7 6 3 6 4 5 7 10 8 6 7 11 12 8 4 4 6 6 6 5 4 3 4 5 5 5 6 6 6 6 6 5 5 5 4 4 5 5 5 4 4 5 4 4 5 6 5 6 5 5 6 7 7 8 8 7 7 7 6 7 8 8 9 10 8 7 7 7 8 8 11 11 8
4 1 0 1 2 5 5 8 10 6 4 2 3 3 2 10 6 7 9 8 8 9 8 9 10 9 8 9 9 10 9 8 5 3 3 5 6 6 6 6 6 7 6 5 6 7 7 5 4 4 4 4 5 5 5 4 4 6 5 5 4 5 5 6 6 7 8 7 7 7 7 7 7 8 9 9 8 7 7 8 10 11 10 9 8 9
2 1 2 1 2 6 5 9 4 3 7 1 4 7 9 7 4 8 10 8 6 9 12 11 13 14 14 10 9 10 9 9 5 2 4 7 6 6 7 7 7 6 6 6 7 7 6 5 5 4 4 5 5 4 4 4 4 5 5 5 5 5 5 5 6 7 7 7 7 7 7 7 7 9 9 8 7 7 8 10 10 10 9 9 10 10
2 3 2 2 3 4 2 1 4 9 6 20 15 2 2 4 1 1 8 7 10 11 11 11 13 15 12 10 10 9 8 7 2 2 5 10 7 6 6 8 8 6 6 7 7 7 6 6 6 5 6 4 3 4 4 5 5 5 6 4 5 5 5 6 6 8 6 7 8 7 7 7 8 8 8 8 7 8 9 10 10 11 10 8 8 8
1 0 1 3 2 2 2 2 9 13 18 11 2 0 1 1 1 3 3 9 9 8 7 8 11 11 11 9 10 9 7 2 3 5 6 10 8 5 8 9 8 7 7 7 6 7 7 6 6 6 5 5 5 5 5 6 5 5 5 5 5 5 6 6 7 8 7 8 8 7 7 7 8 8 9 8 8 9 10 10 10 10 7 7 8 8
4 3 2 3 3 5 3 7 6 2 5 5 0 1 2 4 7 5 0 11 12 7 8 10 9 11 9 9 8 8 1 3 7 5 5 4 4 6 6 7 7 7 6 6 6 6 6 6 6 6 5 6 7 6 6 6 5 5 5 6 5 5 6 6 9 8 7 8 8 8 7 8 8 9 9 8 9 10 10 9 7 8 7 8 8 9
2 1 1 1 3 2 2 3 3 4 10 2 3 4 2 2 2 1 2 9 5 1 7 7 8 8 8 7 8 2 1 6 9 6 6 4 4 3 4 5 6 7 7 7 7 8 8 8 8 8 6 6 7 8 6 6 5 5 6 6 6 6 7 9 9 7 8 9 8 7 7 7 8 8 8 8 9 8 8 8 8 7 5 7 7 8
2 0 1 2 4 4 2 3 7 5 9 2 4 4 4 2 2 5 7 5 2 2 2 4 4 5 5 5 5 4 6 8 10 7 4 5 5 5 5 7 7 8 8 7 6 7 8 7 6 6 6 7 9 8 6 6 5 6 7 7 5 6 9 9 8 8 8 8 7 7 7 7 7 8 8 9 8 7 7 6 4 5 5 5 6 6
2 2 5 9 4 7 8 6 6 9 10 12 8 5 5 2 3 1 5 7 2 1 2 3 4 5 5 6 4 7 7 9 10 7 5 5 7 8 7 6 8 7 8 7 8 8 5 6 7 9 9 9 9 7 6 5 5 7 7 6 6 9 10 8 6 7 7 7 7 7 7 6 7 8 7 6 7 6 5 5 5 4 5 5 5 4
1 2 2 2 6 7 5 7 10 10 16 15 6 12 7 3 1 6 8 2 5 4 4 4 6 6 6 7 6 8 9 8 8 8 8 7 8 9 7 7 7 8 7 7 8 6 6 7 7 8 8 7 8 8 6 5 6 8 7 6 9 11 7 6 7 7 6 7 7 6 6 5 5 5 6 5 4 4 5 4 4 5 4 4 4 4
6 5 5 5 3 1 3 4 7 9 4 4 11 7 3 4 9 6 1 2 3 5 5 6 6 7 6 8 8 10 11 9 8 9 9 8 8 9 9 8 8 9 9 8 8 7 6 7 8 9 9 7 6 6 6 6 7 8 7 8 11 8 6 6 6 6 6 6 5 5 5 5 5 5 4 4 5 5 6 3 3 3 4 4 4 4
5 3 3 6 6 5 6 7 10 10 3 7 10 5 7 13 6 4 5 10 6 6 7 7 6 6 6 7 9 9 9 10 9 7 9 8 8 8 8 8 8 8 8 7 7 8 6 8 8 9 8 7 5 6 6 6 8 8 8 11 9 5 6 6 6 5 5 5 5 5 5 5 5 5 5 5 4 5 4 4 3 3 3 3 4 4
11 9 7 6 6 8 9 12 11 1 6 10 8 8 4 8 8 7 6 9 10 9 6 8 10 9 7 9 10 10 11 8 10 9 9 10 9 9 9 10 9 9 9 9 9 8 6 8 9 10 9 8 6 6 6 6 8 9 10 10 6 6 6 6 5 5 5 6 5 5 5 4 4 4 4 4 4 4 4 4 4 3 2 3 3 4
4 14 2 2 11 6 12 18 15 14 16 14 10 8 9 13 14 11 10 12 10 11 9 10 9 8 8 7 9 10 9 9 11 10 9 10 10 10 9 9 9 8 8 7 7 7 8 8 8 8 10 10 6 7 6 7 8 10 12 8 6 6 6 6 6 6 7 6 5 5 4 5 3 2 2 3 3 4 4 5 4 5 3 4 4 4
8 6 6 11 2 6 11 5 14 22 21 18 15 11 10 11 13 11 11 12 13 11 11 8 10 10 9 8 9 12 14 10 11 12 9 9 10 10 10 10 10 9 9 9 9 7 7 6 8 9 10 11 7 6 7 8 9 11 10 9 8 6 6 6 7 7 6 6 5 4 4 5 5 4 3 3 3 2 3 5 4 5 4 5 5 4
5 11 12 18 12 12 18 13 11 15 14 8 9 11 12 12 12 10 10 9 10 9 8 10 7 9 6 8 8 10 14 11 10 12 10 10 12 11 10 9 10 9 9 8 8 7 7 7 8 10 10 12 10 6 8 8 9 10 9 9 7 6 6 6 6 7 6 6 5 5 5 6 7 7 5 4 4 4 3 3 5 6 6 6 6 6
1 6 8 3 7 12 14 22 28 24 20 22 21 17 16 15 16 16 14 14 13 12 11 10 8 10 7 10 8 9 13 14 10 11 12 11 11 10 10 10 10 10 9 8 8 7 9 8 9 10 10 13 10 7 7 8 8 8 8 8 6 5 5 7 5 5 5 5 4 6 6 6 6 5 5 4 3 3 2 5 5 5 4 3 3 4
5 14 11 2 12 12 15 21 12 5 13 5 9 13 11 11 11 12 11 9 10 10 9 10 10 8 8 8 8 9 13 15 12 9 12 12 12 11 10 10 10 10 10 8 7 8 8 9 10 11 12 12 9 8 8 8 7 6 6 6 5 5 6 7 6 6 7 6 6 6 5 5 5 5 6 6 6 5 3 6 6 5 6 3 4 5
15 18 7 13 13 19 18 20 16 14 17 15 14 11 10 8 6 8 9 8 9 9 9 9 11 12 11 11 8 9 12 13 15 11 12 13 13 11 10 10 11 11 10 8 7 8 9 10 10 10 12 12 8 8 8 8 8 6 6 6 6 6 7 6 7 7 7 6 6 6 6 5 5 5 5 5 6 5 5 4 1 4 7 6 5 4
Wind_Direction
345 59 42 29 336 344 354 358 347 332 317 303 289 270 299 307 303 353 357 29 6 326 294 321 299 299 305 310 310 80 88 319 283 233 141 191 188 219 302 27 38 95 45 294 343 4 16 9 5 2 10 13 13 12 14 23 22 19 18 9 19 20 19 24 28 32 29 23 29 41 44 46 37 37 34 41 43 42 43 41 43 45 44 42 38 38
20 64 30 15 341 326 323 333 326 317 304 301 291 315 314 347 342 321 344 30 341 5 293 313 312 297 296 299 313 107 116 283 330 26 15 25 355 316 56 39 31 3 195 252 4 358 1 14 17 9 11 12 12 9 8 11 15 14 16 26 28 19 19 22 30 37 41 36 39 41 42 48 47 50 46 40 34 39 43 44 44 46 44 43 42 39
38 66 344 358 337 306 286 279 321 272 282 284 271 331 323 347 337 282 104 44 336 333 283 312 314 299 291 281 190 135 287 234 85 83 94 162 263 338 36 48 33 355 6 341 4 3 13 17 28 13 11 14 16 6 7 358 9 15 16 23 26 22 21 25 30 30 34 46 47 49 47 44 62 52 55 63 58 48 46 44 41 40 39 39 41 39
53 17 1 319 332 316 290 9 349 320 217 286 324 26 343 355 19 312 312 350 322 303 299 329 305 291 287 253 145 126 169 73 91 98 91 274 281 80 21 36 7 29 360 344 351 356 12 12 17 18 13 10 11 12 7 4 5 10 17 16 29 21 16 17 30 39 35 35 55 65 65 62 57 58 58 59 52 50 48 46 41 41 38 38 42 37
131 269 317 319 255 251 306 359 16 1 7 147 9 49 329 342 327 254 306 321 304 314 14 326 299 277 241 135 235 164 117 115 132 109 209 246 185 148 92 15 313 330 39 335 338 349 359 1 25 23 8 7 13 14 11 3 2 8 12 12 24 24 15 15 12 42 46 42 40 45 56 59 61 55 49 49 48 46 50 52 43 39 40 40 42 40
90 177 237 299 294 249 277 354 13 334 333 330 124 105 225 305 301 301 301 323 325 13 66 3 346 314 238 236 160 130 128 216 143 136 231 251 181 185 167 204 246 200 136 34 301 355 353 6 20 18 7 8 9 11 5 3 359 10 11 17 23 26 23 12 8 16 48 45 47 45 46 47 47 47 39 39 41 45 49 52 51 47 42 43 45 41
344 177 184 297 310 300 251 121 287 34 324 322 267 206 105 276 280 302 320 2 348 343 312 51 80 289 325 264 160 175 201 211 131 188 207 221 198 236 171 189 206 156 154 117 219 47 356 21 18 17 10 6 5 360 358 1 6 9 19 22 27 29 24 12 16 11 34 55 53 55 56 57 61 70 59 52 46 56 60 62 56 54 46 42 46 44
344 10 5 341 333 351 30 1 40 30 343 302 188 223 281 300 311 313 338 298 255 279 322 32 117 259 316 297 120 95 301 285 196 194 193 201 194 213 194 157 132 119 116 149 45 61 63 40 36 23 9 9 6 350 354 360 1 5 13 22 30 30 28 23 20 20 21 40 51 61 63 65 64 60 64 50 50 48 51 56 56 55 51 44 43 46
73 343 14 347 345 29 10 254 310 56 62 263 333 350 304 280 294 312 258 268 257 329 301 356 117 24 257 237 317 123 290 264 248 229 186 185 188 196 194 143 138 152 139 138 97 56 35 34 46 32 9 34 7 353 356 1 354 353 4 19 26 35 30 28 28 30 26 38 39 44 55 62 57 66 65 57 51 51 41 52 45 46 45 44 40 40
283 133 287 298 333 359 280 321 299 259 311 282 326 304 275 231 161 213 228 264 291 50 275 185 242 320 293 241 172 157 283 288 276 194 188 163 171 177 182 154 163 149 147 158 154 137 97 121 108 290 101 72 61 346 7 358 357 356 359 16 21 25 32 30 31 36 36 34 38 44 44 53 53 58 53 51 52 52 44 54 48 43 42 36 36 33
114 111 22 149 29 290 293 282 263 231 230 294 307 289 278 165 168 278 250 277 320 297 242 184 227 92 301 273 187 159 236 212 323 89 105 129 146 166 162 155 167 172 167 169 179 178 161 166 176 12 70 84 90 27 27 6 1 353 2 15 21 18 23 26 32 36 44 41 42 46 44 49 56 54 60 54 46 42 44 52 51 49 44 40 41 35
141 112 96 356 162 291 236 307 207 199 258 21 321 314 299 115 2 264 288 149 44 279 199 176 164 162 145 292 33 120 141 111 343 164 143 148 161 165 152 160 170 173 169 173 175 193 170 165 173 198 118 95 64 59 35 18 3 357 357 17 24 16 21 21 27 33 32 36 39 49 52 54 53 60 63 69 69 57 54 52 54 50 51 42 41 37
190 185 94 128 188 67 324 282 207 18 288 270 308 331 15 312 348 338 158 338 256 281 204 153 20 339 228 227 291 55 71 108 63 11 135 149 163 161 153 165 162 161 156 165 186 176 176 180 167 181 170 145 129 94 53 36 354 3 355 15 36 16 11 23 24 42 39 37 33 34 41 46 47 52 56 55 65 66 67 59 60 55 55 46 41 31
321 350 341 185 342 280 305 28 335 9 358 344 15 335 15 1 23 335 301 253 284 43 186 144 193 237 263 261 322 85 53 51 55 57 41 120 150 159 155 155 157 158 165 179 181 179 186 189 181 185 167 178 153 153 150 106 25 344 14 15 42 22 15 16 25 29 45 43 40 35 37 44 48 49 56 52 57 56 60 64 72 70 66 62 57 43
349 0 341 5 328 273 47 70 121 225 316 306 300 55 244 58 106 301 346 329 296 290 311 306 112 252 341 259 26 101 65 46 63 52 48 37 66 117 137 140 157 168 183 191 186 184 188 193 184 189 195 175 169 156 144 164 167 86 304 31 19 34 17 22 12 22 32 41 38 36 37 35 42 66 63 59 59 57 65 63 74 84 77 68 63 66
117 235 269 327 275 335 34 64 188 320 276 238 252 229 39 71 39 210 265 284 304 329 325 328 180 234 266 120 43 43 63 96 82 90 69 50 38 48 84 160 188 195 202 194 198 203 202 193 189 189 190 183 179 178 162 178 155 178 176 155 109 67 26 31 27 14 30 33 43 34 39 35 30 40 64 54 47 47 62 76 77 71 85 94 75 55
345 280 154 81 10 34 67 325 39 35 27 298 5 55 237 251 153 295 281 237 2 131 250 211 306 314 328 65 47 28 35 154 149 139 149 176 165 151 228 262 227 219 215 200 198 204 209 203 197 187 187 191 186 183 179 181 180 183 183 158 187 178 139 252 45 15 50 17 43 43 43 43 48 51 76 87 79 70 54 74 78 84 83 86 79 59
43 286 284 116 307 6 5 26 331 359 57 321 23 253 222 93 128 103 300 275 216 260 282 8 303 317 2 321 323 353 290 175 187 198 175 195 186 201 218 222 225 227 223 214 206 202 203 202 200 196 191 187 190 187 187 195 182 184 184 183 187 187 185 198 187 165 168 104 43 62 50 53 62 78 65 78 66 69 72 77 102 97 73 75 102 102
16 311 353 337 101 124 1 38 351 269 203 75 231 235 63 336 7 294 291 346 337 328 299 282 344 318 284 320 344 333 253 201 193 195 164 217 225 234 231 225 224 223 223 222 222 215 213 213 213 199 195 194 193 187 188 195 177 180 186 194 190 192 194 190 185 191 181 167 157 155 176 140 155 101 110 99 58 69 74 44 69 93 129 143 218 146
290 194 297 257 12 163 139 81 45 247 328 332 341 322 345 125 181 337 171 239 254 285 355 280 2 283 350 39 341 336 34 30 71 90 204 282 269 333 315 297 258 228 219 221 219 215 216 216 213 209 198 195 194 194 192 188 180 183 190 193 202 205 198 188 178 184 194 193 180 184 202 187 176 183 161 166 157 200 158 155 135 148 83 199 201 118
323 100 272 262 189 38 329 110 102 20 79 328 335 215 340 181 189 157 242 159 190 273 253 307 319 287 314 343 327 28 33 29 23 40 33 33 17 11 35 23 357 343 321 258 226 223 220 219 217 216 210 202 197 192 187 188 191 193 188 195 195 197 204 201 197 184 203 193 193 187 198 207 197 208 183 188 181 203 189 174 176 180 201 180 236 166
288 255 255 313 327 302 268 167 348 23 37 131 164 32 80 34 9 1 292 51 10 71 278 342 286 282 296 349 347 29 42 62 23 21 8 324 356 12 346 84 235 276 288 300 307 285 253 238 228 219 211 202 191 200 197 197 192 195 198 199 197 196 202 200 202 195 198 199 193 192 198 204 200 200 202 201 201 202 214 189 190 195 196 180 220 189
156 298 292 288 260 291 133 139 45 168 109 129 93 261 44 325 146 326 303 334 353 249 93 221 274 275 226 303 19 23 63 73 73 6 281 288 338 352 347 335 323 275 260 274 286 304 310 297 264 239 217 206 204 203 202 200 200 202 203 200 201 198 209 199 199 195 192 196 199 199 194 195 197 192 200 202 214 208 216 217 200 198 193 202 214 212
95 239 301 264 269 80 106 124 118 26 330 41 291 301 20 194 165 194 237 122 260 238 322 255 220 259 262 330 310 297 268 192 229 221 266 290 324 316 345 337 333 337 321 310 268 245 253 271 292 300 282 262 231 218 212 210 210 210 209 205 201 205 209 204 198 193 192 197 202 200 194 196 198 190 193 200 207 211 212 212 208 203 201 206 209 217
19 237 97 298 309 263 324 6 17 315 34 197 241 185 207 226 54 108 237 344 278 205 204 172 251 272 301 289 284 282 235 311 311 302 272 262 264 292 292 264 300 307 306 299 292 269 247 240 251 252 249 249 255 246 230 224 219 215 219 213 210 213 208 204 199 196 197 195 200 202 199 200 197 197 197 199 200 209 211 208 206 205 205 203 210 217
175 286 11 342 343 343 339 336 332 321 322 302 220 138 160 199 168 132 305 140 229 250 188 216 257 253 292 330 299 303 312 312 318 322 312 313 355 343 324 295 293 290 275 273 275 284 275 249 239 243 244 245 243 242 244 239 233 229 224 222 217 217 211 210 199 201 200 200 201 204 204 202 199 201 202 201 201 205 208 209 207 207 208 199 209 213
269 323 241 219 212 236 253 275 311 351 322 302 290 281 273 203 204 195 209 241 235 257 248 234 244 282 283 285 287 287 314 315 313 315 313 316 317 317 300 297 300 290 284 276 264 253 258 269 255 243 239 235 237 234 236 237 239 238 236 235 224 218 216 213 204 204 204 206 207 208 208 204 205 203 204 202 203 202 203 207 207 204 207 204 206 209
284 274 223 229 242 247 268 281 297 321 288 284 284 283 273 259 207 198 193 233 99 332 271 252 243 256 276 302 308 308 303 305 307 313 315 312 307 295 275 266 271 292 292 295 288 274 264 265 273 257 244 240 241 238 239 237 235 232 231 238 235 224 217 211 203 209 212 210 214 216 214 209 208 207 207 205 202 203 205 205 206 208 208 200 207 211
225 259 243 197 244 249 264 279 293 293 276 274 276 274 274 253 234 231 234 238 239 236 251 271 299 295 286 291 293 292 293 293 299 305 301 302 302 286 278 264 275 277 277 276 274 271 259 262 265 276 270 251 243 242 241 243 247 246 251 251 244 231 225 207 199 210 212 213 218 223 218 212 211 212 209 208 208 209 209 206 206 206 207 207 209 211
24 238 255 292 286 287 282 278 280 278 281 280 265 264 257 253 243 234 246 241 227 243 254 270 277 276 278 279 280 283 286 288 287 290 305 320 285 284 290 281 251 259 260 258 256 253 254 249 252 259 266 267 251 247 246 244 242 237 238 245 243 241 242 194 212 213 217 219 226 228 218 214 213 213 212 211 216 216 210 205 204 204 207 212 212 212
118 282 85 295 290 283 276 268 267 266 284 289 289 279 264 257 259 243 241 252 244 260 259 260 266 271 272 269 275 274 274 273 285 292 264 251 278 284 291 285 274 268 268 267 271 274 277 278 263 255 254 258 254 243 238 236 236 235 235 238 237 234 231 202 220 218 220 229 233 231 220 215 219 213 216 219 220 220 212 210 205 205 211 212 209 212
136 268 19 20 318 300 270 329 310 291 286 279 282 286 285 245 233 248 224 219 197 231 240 259 269 264 265 275 251 255 268 289 285 285 294 263 249 263 266 266 271 276 277 271 262 258 269 274 275 270 258 253 251 248 238 239 239 234 241 238 234 233 218 209 218 222 227 235 239 238 228 223 221 218 224 224 226 225 219 214 211 212 213 210 212 217
185 247 360 356 318 270 249 299 303 313 304 295 272 245 232 199 203 240 240 201 206 198 227 232 237 244 263 266 309 297 291 285 290 280 286 286 265 255 257 258 256 262 266 270 270 268 263 258 255 255 258 256 249 249 244 227 226 231 237 241 239 224 211 214 216 222 231 234 232 234 231 227 222 225 227 227 228 228 221 218 219 220 216 217 218 213
153 166 313 331 266 286 329 329 317 343 341 241 181 185 247 281 242 238 254 220 216 172 219 210 243 269 288 291 287 280 282 269 257 247 231 235 251 260 264 253 250 254 263 269 267 265 264 265 262 255 252 249 247 237 239 220 220 237 234 233 239 213 219 213 227 223 233 233 229 229 226 225 223 228 231 231 230 225 223 219 222 224 222 224 218 214
155 150 212 197 263 287 328 321 320 317 241 221 274 272 255 241 238 236 257 258 241 223 232 253 263 266 265 266 266 267 265 270 276 246 285 265 238 239 250 263 263 258 252 256 263 264 261 258 265 275 283 281 265 256 244 252 233 248 262 250 249 234 225 223 228 234 236 236 235 228 227 221 221 229 234 232 228 226 226 226 230 228 227 219 219 218
203 148 213 255 213 287 326 286 353 240 298 308 306 328 80 82 136 352 299 256 241 234 228 234 244 255 264 267 267 264 260 265 316 281 264 271 255 235 245 251 255 247 246 243 243 253 262 266 260 255 261 259 261 267 242 243 244 239 250 235 224 234 228 229 231 238 236 239 238 232 228 219 223 229 233 232 228 225 230 230 229 232 231 223 226 229
312 76 26 289 175 221 240 262 236 301 308 299 53 304 114 176 149 90 301 288 262 249 213 223 242 253 259 261 258 261 266 324 325 297 274 270 269 238 220 240 240 241 237 247 248 261 262 263 264 261 260 270 261 252 252 247 242 235 246 248 236 225 234 229 237 240 235 238 237 233 229 222 224 231 231 229 226 228 231 232 233 235 227 223 226 225
350 172 223 143 267 158 296 303 301 279 293 273 225 112 51 85 114 145 207 292 297 271 208 209 233 247 256 261 262 261 332 336 294 279 267 274 241 247 249 242 245 244 246 257 269 272 275 272 272 271 254 258 261 246 242 243 237 230 237 242 239 230 241 233 240 240 236 240 238 232 226 220 219 227 231 228 226 229 232 231 232 231 216 214 223 225
346 28 358 179 284 358 301 275 288 281 249 230 211 198 187 138 102 359 348 286 266 207 182 180 216 237 238 249 266 240 176 265 264 250 258 243 264 255 264 256 245 245 249 252 257 264 264 263 254 253 255 251 260 260 243 244 238 233 239 239 236 229 238 240 242 240 237 240 238 233 229 224 222 225 228 229 231 229 233 232 229 232 215 219 219 228
76 182 121 300 249 211 205 264 253 223 262 272 127 176 189 218 22 31 340 296 274 290 228 168 207 225 251 259 257 222 205 255 271 256 235 249 260 267 270 275 273 269 267 263 262 249 249 257 267 269 256 254 254 257 255 244 236 233 237 239 227 233 239 242 239 238 237 240 240 235 231 225 224 226 224 230 235 231 232 233 233 230 223 229 218 228
124 257 198 219 213 229 220 259 281 273 261 252 227 182 172 176 88 79 251 244 244 205 248 190 218 237 251 265 241 257 220 221 251 265 268 285 302 293 281 268 260 256 263 269 270 270 267 260 247 247 246 246 250 255 253 243 235 244 241 238 236 242 243 244 244 241 240 238 237 235 232 228 221 228 232 228 231 235 240 236 234 236 230 231 223 199
221 186 229 172 240 221 214 235 248 272 266 251 215 154 161 90 269 234 234 199 171 226 244 220 249 254 255 251 249 247 259 255 269 281 286 282 271 272 271 272 279 282 273 266 269 273 271 269 264 260 261 254 249 249 247 240 242 248 249 244 246 247 248 244 243 242 243 240 237 236 234 231 234 226 231 234 228 236 243 244 223 214 205 180 166 172
190 153 204 197 204 159 186 261 303 288 280 94 114 94 173 163 232 209 228 258 232 272 276 282 251 257 243 264 250 258 269 272 271 272 271 271 275 276 275 275 275 274 276 280 285 274 259 266 266 262 256 253 244 242 241 228 240 248 248 246 249 251 248 245 244 244 244 244 244 242 238 236 229 232 222 219 203 204 223 211 156 145 148 148 154 165
168 191 203 209 170 160 175 189 221 212 145 181 138 176 203 215 229 273 318 289 280 278 284 278 266 249 249 249 268 267 265 276 279 273 276 275 272 272 272 269 267 269 271 263 253 258 257 259 259 263 264 258 242 234 232 216 237 245 247 250 252 248 247 248 247 243 245 244 241 238 234 226 225 217 207 202 192 190 190 175 162 153 160 148 155 163
180 200 179 204 189 193 205 224 237 247 174 216 220 235 241 235 248 254 248 256 278 274 258 268 273 272 260 265 269 271 280 268 268 268 270 273 271 268 269 266 262 265 265 267 266 260 252 247 257 263 268 260 241 232 229 217 226 244 249 254 246 243 242 245 246 243 242 239 233 227 224 220 218 218 199 191 173 187 184 174 156 165 165 138 144 152
190 204 219 286 242 247 262 255 265 265 255 243 235 242 263 272 273 270 265 273 261 261 262 260 264 262 266 259 270 278 265 273 277 277 271 271 271 269 266 270 270 265 262 264 266 261 253 254 255 258 262 266 241 233 229 224 213 233 245 249 241 235 231 233 236 240 236 230 226 225 215 220 222 183 171 168 166 180 182 174 168 166 158 148 157 158
224 197 213 234 218 74 267 220 230 247 256 263 266 262 252 247 253 258 266 262 269 269 269 264 263 268 265 267 262 271 276 271 272 272 268 271 269 267 265 264 266 261 260 260 255 254 261 254 259 259 257 263 254 227 232 228 225 228 240 245 238 230 225 226 227 235 235 229 229 231 209 209 205 192 178 167 151 144 144 152 157 153 160 161 160 156
263 194 222 234 227 215 250 264 268 259 254 263 269 276 271 266 266 264 255 258 259 259 252 259 262 266 259 264 257 264 272 271 268 274 274 270 272 271 269 266 266 270 262 252 255 249 254 254 254 258 261 262 261 238 234 230 230 229 232 239 237 231 227 230 228 233 240 233 224 224 203 206 198 185 180 180 155 140 120 132 148 155 166 169 164 152
200 121 223 155 212 250 270 268 261 269 277 272 266 258 254 258 262 265 262 262 263 265 266 263 246 248 244 249 257 263 274 274 263 266 270 271 270 271 269 266 265 263 266 269 262 249 246 249 254 253 254 259 258 249 244 238 235 230 229 235 233 221 221 235 237 238 245 240 224 227 203 199 190 179 163 157 132 108 128 150 146 135 106 88 123 149
190 230 223 280 259 244 234 252 250 271 274 228 242 251 257 254 253 258 263 265 264 267 266 267 267 257 253 254 256 258 266 277 275 265 269 268 267 268 269 268 268 269 267 257 254 251 252 246 243 251 254 258 255 251 252 253 247 234 230 229 223 202 212 226 228 230 237 225 222 220 196 188 169 164 154 156 148 120 65 41 68 101 132 121 99 93
224 233 191 225 226 247 243 248 256 253 268 268 272 271 261 255 240 248 252 252 257 254 257 263 272 278 273 270 250 248 258 265 273 272 271 273 271 266 264 266 268 268 264 261 261 262 254 253 247 247 253 256 257 254 254 257 252 238 229 224 216 200 212 209 219 228 234 217 219 206 189 171 160 163 152 154 145 137 130 110 47 83 112 127 140 151